Regional Weather Roundup
Issued by NWS

Home | Current Version | Previous Version | Text Only | Print | Product List | Glossary On
Versions: 1 2 3 4 5 6 7 8 9 10 11 12 13 14 15 16 17 18 19 20 21 22 23 24 25 26 27 28 29 30 31 32 33 34 35 36 37 38 39 40 41 42 43 44 45 46 47 48 49 50
000
ASUS43 KLSX 300859
RWRMO

WEATHER SUMMARY FOR MISSOURI
NATIONAL WEATHER SERVICE SPRINGFIELD MO
400 AM CDT THU OCT 30 2014

NOTE: "FAIR" INDICATES FEW OR NO CLOUDS BELOW 12,000 FEET WITH NO
       SIGNIFICANT WEATHER AND/OR OBSTRUCTIONS TO VISIBILITY.
       CURRENT SKY AND/OR WEATHER CONDITIONS ARE NOT AVAILABLE FOR
       CHILLICOTHE AND FARMINGTON.

MOZ001>031-035>038-043-044-053-054-301000-
...NORTHERN AND WESTERN MISSOURI...

CITY           SKY/WX    TMP DP  RH WIND       PRES   REMARKS
KANSAS CTY INT PTCLDY    46  37  71 S10       30.02F
KANSAS C DTWN  CLEAR     50  36  58 SW3       30.04F
LEE`S SUMMIT   CLEAR     48  35  60 S9        30.04F
ST JOSEPH      PTCLDY    48  38  68 SE10      30.02F
CHILLICOTHE      N/A     45  35  68 SE3       30.09F
KIRKSVILLE     MOCLDY    39  35  86 SE5       30.10F

$$
MOZ066>068-077>081-088>096-101>105-301000-
...SOUTHWEST MISSOURI...

CITY           SKY/WX    TMP DP  RH WIND       PRES   REMARKS
SPRINGFIELD    CLEAR     43  36  76 SE12      30.11F
JOPLIN         CLEAR     47  37  68 S8        30.10F

$$
MOZ032>034-039>042-045>050-055>058-069>072-301000-
...CENTRAL MISSOURI...

CITY           SKY/WX    TMP DP  RH WIND       PRES   REMARKS
COLUMBIA       CLEAR     40  34  79 SE8       30.11F
JEFFERSON CITY CLEAR     36  35  96 SE5       30.13F
ROLLA          CLEAR     41  31  67 SE8       30.12S
SEDALIA        CLEAR     43  34  70 S9        30.09F
OSAGE BEACH    CLEAR     39  32  75 SE5       30.11F

$$
MOZ051-052-059>065-301000-
...EAST CENTRAL MISSOURI...

CITY           SKY/WX    TMP DP  RH WIND       PRES   REMARKS
ST LOUIS INTL  CLEAR     40  35  83 CALM      30.15F
SPIRIT OF STL  CLEAR     35  33  92 CALM      30.14F
ST CHARLES     PTCLDY    37  36  96 E5        30.15S FOG

$$
MOZ072>076-082>087-097>100-106>115-301000-
...SOUTH CENTRAL AND SOUTHEAST MISSOURI...

CITY           SKY/WX    TMP DP  RH WIND       PRES   REMARKS
CAPE GIRARDEAU CLEAR     35  34  96 CALM      30.17R
FARMINGTON     CLEAR     32  28  86 CALM      30.16S
POPLAR BLUFF   CLEAR     36  32  85 CALM      30.16S
WEST PLAINS    CLEAR     39  33  79 CALM      30.15S

$$



USA.gov is the U.S. government's official web portal to all federal, state and local government web resources and services.